Wetbulb
64.13 61.35 57.39 55.78 50.12 47.63 43.45 45.81 49.52 48.72 50.70 54.83 55.18 54.33 54.85 55.87 52.34 48.42 64.92 67.29 68.56 69.09 69.94 69.78 70.63 71.27 70.91 70.43 70.31 70.22 69.36 68.67 69.15 68.68 68.15 67.97 67.27 66.85 66.68 66.62 68.03 68.06 68.05 68.49 68.85 68.66 67.84 67.46 67.62
61.78 58.20 56.15 51.43 46.11 42.15 43.57 47.66 47.42 50.03 55.41 55.97 55.44 56.25 55.79 55.57 60.90 61.98 64.39 67.81 69.12 69.39 69.40 69.48 69.68 70.93 70.43 70.36 70.52 70.00 69.79 68.49 68.14 68.16 67.78 67.07 66.84 67.18 66.38 65.93 65.87 67.70 67.51 67.34 67.52 67.66 67.54 66.99 66.90
59.95 57.34 53.93 47.88 43.68 42.63 43.82 47.81 49.04 52.78 55.22 52.36 54.79 57.20 57.23 57.74 62.06 63.25 66.21 68.65 69.49 69.04 69.43 69.43 69.68 70.49 69.47 69.21 69.43 69.57 69.58 68.74 67.74 66.95 66.35 65.99 66.16 65.67 65.92 65.74 65.57 65.80 67.14 66.79 66.67 66.59 66.99 67.24 66.54
56.22 55.48 52.32 46.64 44.21 46.69 48.37 49.03 51.01 52.85 52.95 54.15 55.39 54.71 59.05 62.27 63.73 65.11 68.32 69.20 68.90 69.02 69.46 68.99 70.09 70.37 69.67 68.98 68.81 69.40 69.80 68.40 67.60 67.35 66.60 65.94 65.54 65.02 64.89 65.51 65.52 64.79 66.88 66.44 65.85 65.55 65.86 67.28 66.60
53.73 52.13 46.28 44.48 45.93 47.73 49.20 50.31 52.97 51.04 51.26 52.96 53.64 54.10 57.14 62.41 64.92 67.70 68.25 68.88 68.21 68.81 69.17 69.23 69.70 70.27 70.33 69.40 69.16 69.82 69.99 69.47 68.51 68.37 67.51 66.64 65.88 65.01 64.49 64.87 65.12 65.47 65.72 66.09 65.47 64.66 64.67 65.04 66.02
50.78 50.34 44.26 42.53 44.89 48.12 49.80 50.99 51.76 51.43 52.74 54.05 54.30 55.09 57.60 62.89 65.52 66.75 68.19 68.27 68.76 68.63 68.83 69.05 67.03 68.39 69.60 69.89 69.61 69.54 69.53 68.80 68.63 68.66 68.13 67.56 66.81 65.98 64.96 64.42 64.08 63.67 63.70 64.15 64.65 63.97 63.70 64.06 64.33
49.02 47.06 43.38 43.30 44.22 46.96 49.23 51.45 51.37 51.93 52.49 52.27 56.21 53.94 58.45 61.54 65.51 66.86 67.36 67.84 68.41 68.79 68.67 68.86 69.26 68.24 66.22 67.65 67.88 68.41 68.72 68.52 68.58 68.89 68.51 67.82 67.21 66.91 66.23 66.08 64.97 63.57 63.04 63.10 63.65 63.79 63.46 63.24 63.70
48.56 47.52 43.70 44.45 44.10 46.07 48.96 51.36 52.18 52.07 51.83 56.04 57.64 53.31 56.28 61.53 65.44 66.45 66.82 66.78 67.40 67.93 68.23 68.34 68.71 68.60 68.59 68.88 65.16 66.11 67.14 67.38 67.26 66.36 65.82 65.61 65.32 65.58 65.47 64.25 65.40 64.85 64.42 64.31 64.56 64.47 63.62 63.52 63.65
50.14 45.08 42.69 44.26 45.36 47.07 49.61 50.41 52.68 55.14 53.97 55.55 56.87 56.52 58.70 62.97 64.04 64.71 64.65 65.40 65.94 66.42 67.23 67.78 67.89 68.27 67.92 67.97 66.51 64.17 64.67 65.32 65.52 65.52 63.90 63.73 66.45 66.62 65.15 63.33 63.94 65.13 65.71 65.92 66.23 66.07 65.45 64.29 63.08
45.02 43.58 44.99 47.52 48.11 47.56 49.11 50.87 52.37 53.48 54.01 55.11 56.81 59.24 60.94 62.12 62.48 62.80 63.16 63.18 63.93 65.16 65.92 66.86 67.23 67.56 67.60 67.38 67.71 67.20 67.32 67.64 67.27 66.55 66.17 65.89 65.37 66.32 65.00 61.95 61.62 63.21 63.23 64.36 64.89 65.92 65.11 63.28 64.14
46.06 43.18 46.06 48.42 49.62 49.79 49.75 50.13 52.50 52.26 51.31 54.10 55.08 57.38 60.14 60.65 61.03 61.77 62.67 63.38 64.09 64.84 65.10 65.87 66.21 66.88 67.04 67.04 67.33 66.82 66.71 66.94 66.85 66.21 65.74 65.22 64.50 64.60 65.33 65.33 64.78 64.60 60.52 63.61 63.31 63.36 63.68 63.83 63.80
43.64 46.12 47.36 49.39 49.82 49.26 49.13 50.77 50.84 52.07 53.14 53.20 56.89 59.76 60.38 60.24 60.39 61.08 61.61 62.25 62.69 63.16 64.42 65.33 65.94 65.92 66.13 66.54 66.53 66.37 65.81 66.06 66.03 65.97 65.54 64.68 63.99 63.55 63.71 64.13 64.17 62.71 63.09 62.73 62.79 62.86 62.70 62.52 62.39
43.87 44.14 48.07 48.45 48.90 48.35 49.51 48.28 50.24 51.49 51.47 56.23 58.52 59.40 59.93 60.46 60.46 60.80 61.68 62.18 62.35 62.40 63.43 64.25 65.27 65.48 65.52 65.40 65.85 65.84 65.67 65.70 66.06 65.67 65.30 64.93 64.13 63.65 63.49 62.97 63.35 63.62 62.36 61.57 61.39 60.78 60.80 61.15 61.59
45.07 45.25 46.34 47.93 47.40 48.25 47.62 47.06 48.78 50.46 52.89 56.31 57.96 58.54 58.91 59.52 60.15 59.77 60.30 61.26 61.29 62.01 62.74 63.72 63.96 64.94 65.22 65.15 65.16 65.30 65.37 65.62 65.45 65.52 65.28 64.98 64.69 64.08 63.46 62.50 61.98 62.01 62.92 63.43 61.64 61.34 60.99 60.80 60.49
45.21 42.00 43.55 45.51 46.69 46.15 47.54 45.57 46.22 48.55 51.95 54.70 56.15 57.19 58.03 58.67 59.43 60.18 61.08 60.78 61.44 61.86 62.46 62.34 63.22 64.02 63.97 64.47 64.72 64.63 64.77 64.57 64.62 64.67 64.89 64.88 64.73 64.49 63.75 62.87 62.78 63.01 62.45 62.49 62.90 61.42 61.05 60.64 60.76
39.98 40.26 36.76 41.61 45.66 45.61 46.54 42.26 46.45 48.29 51.09 51.68 54.06 54.77 56.44 57.84 58.88 59.70 60.27 60.45 60.87 59.81 58.26 59.25 58.30 60.98 62.92 62.97 62.83 62.28 62.80 63.79 64.26 64.52 64.64 64.45 64.35 64.60 64.86 64.20 64.00 63.81 63.04 62.40 61.52 61.60 60.97 60.82 60.71
37.13 32.09 34.17 38.61 44.24 44.09 43.45 41.47 43.79 46.07 48.14 49.90 51.43 53.04 54.12 54.93 54.86 55.92 57.63 58.48 57.32 56.27 53.98 53.22 52.96 53.63 54.04 53.65 53.30 53.24 53.41 54.47 57.79 61.56 63.40 64.25 64.45 64.61 64.74 65.00 65.24 64.47 64.53 63.15 62.43 62.24 61.86 61.65 61.45
33.49 33.21 34.10 34.84 37.84 41.20 39.76 41.04 42.91 42.74 43.54 45.99 46.72 48.79 50.07 50.92 53.23 54.53 54.49 53.52 52.35 51.11 50.82 51.34 51.56 51.82 52.44 52.96 53.53 53.40 52.63 53.47 55.20 57.33 58.64 60.52 63.12 63.93 64.38 64.75 65.05 65.22 64.69 63.84 62.67 62.01 62.87 62.77 63.06
37.05 34.43 32.86 34.34 37.18 36.76 38.02 38.89 41.91 42.55 42.45 42.06 42.70 43.02 44.42 46.64 51.04 49.53 50.46 51.05 49.71 49.04 49.16 50.04 50.22 50.72 51.12 51.49 52.30 52.49 52.14 54.94 56.73 54.97 55.36 59.09 61.45 62.41 63.45 64.06 63.20 62.73 62.15 60.69 60.54 61.54 61.21 61.39 62.37
36.10 33.40 32.11 34.39 37.35 35.78 34.74 35.29 37.41 38.47 40.73 42.98 43.88 43.04 43.11 43.73 45.63 45.96 46.88 47.77 47.98 49.25 48.69 48.62 49.33 49.09 49.43 50.45 51.89 53.24 55.04 55.14 52.80 50.33 49.31 50.73 54.46 57.49 60.75 61.89 61.53 60.94 60.56 59.39 59.31 58.76 60.19 60.36 60.47
32.90 32.16 31.33 32.82 34.22 34.61 32.05 30.83 33.84 37.70 38.82 40.43 41.90 44.19 45.05 45.21 45.42 45.69 45.04 45.70 46.45 46.57 47.19 47.86 47.91 47.58 47.78 49.12 51.26 52.80 54.05 53.60 52.23 49.42 47.29 46.58 48.68 50.20 52.16 53.77 55.07 54.69 56.50 55.68 55.93 56.90 58.02 57.66 58.77
32.89 35.52 35.24 34.26 32.44 27.93 31.74 23.13 29.90 33.46 34.49 36.27 38.96 40.89 42.49 43.65 43.89 44.00 44.15 44.65 45.57 46.30 46.02 46.66 46.34 45.82 46.54 47.66 51.29 52.48 53.10 52.56 51.41 47.37 44.79 44.33 45.44 46.24 47.60 48.65 49.32 49.64 50.66 50.88 51.95 52.66 55.09 55.92 56.12
35.36 36.87 35.83 34.59 30.77 30.18 28.96 27.13 28.28 31.65 33.05 35.87 37.56 38.26 39.52 40.58 41.08 42.03 42.69 44.45 45.80 44.62 44.84 44.25 43.92 44.09 44.49 46.19 49.68 52.17 51.57 49.22 44.83 43.28 42.61 42.25 42.34 43.17 43.85 44.84 45.73 46.38 47.36 47.85 48.37 48.27 49.58 51.58 53.09
38.52 35.77 34.49 32.62 30.74 21.93 26.63 26.20 24.46 29.87 33.18 34.61 36.25 37.40 38.43 38.58 39.34 39.93 40.63 41.90 43.24 42.85 42.52 41.84 42.10 41.92 42.54 44.40 46.60 50.13 49.51 45.06 42.78 41.87 41.53 40.74 40.31 40.46 41.12 41.90 43.07 44.00 44.34 44.46 44.68 44.88 44.78 46.32 47.36
35.44 30.34 23.50 22.24 21.66 17.54 25.75 25.19 30.17 32.71 35.27 35.57 36.71 36.30 37.81 39.26 40.22 40.71 40.47 40.74 40.87 40.44 39.99 39.90 40.70 40.15 40.68 42.13 43.37 45.40 46.11 44.92 44.03 42.50 41.21 39.15 38.64 38.49 38.63 39.79 40.90 41.35 41.07 41.58 42.06 41.96 41.81 42.22 43.45
34.03 29.99 24.38 16.51 18.62 19.62 27.60 23.53 27.73 34.20 36.25 37.44 37.54 37.77 38.17 38.45 39.23 39.85 40.33 40.34 39.86 38.58 38.73 39.10 39.48 38.89 38.66 39.22 39.35 40.49 42.29 42.79 42.02 41.02 39.79 38.86 37.95 37.28 37.50 38.53 39.04 39.32 39.25 39.43 40.16 40.10 40.01 39.98 40.35
34.69 30.37 31.87 24.59 16.27 18.43 23.07 26.70 31.36 33.88 35.11 35.30 36.10 36.71 38.21 38.97 39.37 39.56 40.02 39.83 38.60 37.33 37.63 38.20 38.17 38.22 37.29 36.92 36.70 37.35 38.11 38.35 37.68 36.98 37.01 36.12 35.81 36.36 36.67 37.39 37.08 37.24 37.50 37.65 37.94 38.03 37.79 38.25 38.20
35.34 36.58 27.59 22.62 11.75 12.02 20.89 23.24 25.52 30.66 33.10 35.10 35.01 35.72 37.48 38.60 39.60 39.61 39.41 38.81 37.83 37.13 37.06 37.09 37.40 37.02 36.42 35.41 35.57 35.73 35.41 35.34 35.08 34.77 34.65 34.89 34.77 35.52 36.07 35.57 35.25 35.07 35.33 35.93 36.38 36.41 36.43 35.87 35.87
33.06 31.03 31.32 29.69 24.84 17.96 15.21 22.34 29.50 31.81 32.92 33.46 34.26 35.45 36.24 37.70 38.33 39.29 39.02 38.41 37.98 36.78 35.84 35.66 35.76 35.86 35.13 34.28 34.21 33.88 33.61 33.46 33.42 33.47 33.23 33.13 33.41 33.92 34.53 34.08 33.58 33.18 33.09 33.95 34.35 34.70 33.84 32.87 32.07
36.14 33.94 33.23 24.87 21.60 24.38 23.57 25.41 33.89 33.68 33.92 34.19 34.89 36.52 36.80 37.13 38.91 38.78 38.49 37.84 36.81 36.49 35.49 34.80 34.17 34.48 34.58 34.25 33.06 32.82 32.57 32.03 31.73 31.47 31.33 31.80 31.85 32.88 33.58 33.02 32.18 31.65 31.92 32.59 32.97 32.49 31.12 30.98 30.31
MSLP
1013.55 1013.57 1013.78 1014.15 1015.64 1016.67 1017.55 1018.01 1018.08 1018.58 1018.98 1019.08 1019.16 1019.30 1019.45 1019.95 1020.13 1020.83 1020.57 1020.66 1020.51 1021.10 1021.55 1021.76 1021.95 1022.13 1022.35 1022.60 1022.79 1022.99 1023.12 1023.31 1023.51 1023.63 1023.76 1023.86 1023.95 1024.04 1024.11 1024.12 1024.14 1024.15 1024.17 1024.28 1024.41 1024.44 1024.61 1024.64 1024.60
1013.36 1013.72 1013.90 1014.83 1016.12 1017.34 1018.02 1018.03 1018.29 1018.53 1019.01 1019.23 1019.35 1019.62 1019.71 1020.21 1020.20 1020.44 1020.67 1020.77 1020.59 1021.01 1021.50 1021.77 1022.04 1022.26 1022.50 1022.69 1022.87 1023.09 1023.19 1023.40 1023.61 1023.81 1023.94 1024.05 1024.15 1024.23 1024.18 1024.33 1024.36 1024.31 1024.46 1024.57 1024.65 1024.74 1024.83 1024.87 1024.88
1013.22 1013.48 1014.26 1015.51 1016.94 1017.45 1017.81 1018.04 1018.26 1018.81 1019.14 1019.28 1019.69 1019.90 1019.99 1020.17 1020.30 1020.25 1020.24 1020.54 1020.85 1021.14 1021.53 1021.86 1022.15 1022.37 1022.58 1022.77 1022.94 1023.13 1023.26 1023.48 1023.65 1023.85 1024.03 1024.12 1024.22 1024.36 1024.47 1024.50 1024.61 1024.62 1024.62 1024.89 1024.94 1025.06 1025.05 1025.03 1025.14
1013.37 1014.02 1015.34 1015.95 1017.21 1017.46 1017.57 1017.88 1018.30 1018.87 1019.27 1019.37 1019.61 1020.19 1020.20 1020.03 1019.98 1019.95 1020.17 1020.66 1020.97 1021.36 1021.68 1022.04 1022.24 1022.44 1022.65 1022.85 1023.00 1023.19 1023.36 1023.58 1023.76 1023.87 1024.05 1024.20 1024.33 1024.51 1024.63 1024.78 1024.83 1024.85 1024.86 1025.05 1025.23 1025.34 1025.32 1025.31 1025.29
1013.80 1014.76 1015.98 1016.89 1017.45 1017.58 1017.66 1017.81 1018.35 1018.74 1018.94 1019.39 1019.52 1020.23 1020.36 1020.16 1020.05 1020.21 1020.39 1020.74 1021.11 1021.44 1021.78 1022.11 1022.26 1022.49 1022.74 1022.92 1023.08 1023.26 1023.41 1023.55 1023.76 1023.90 1024.05 1024.24 1024.43 1024.60 1024.73 1024.87 1024.93 1024.97 1025.12 1025.25 1025.38 1025.50 1025.56 1025.53 1025.53
1014.55 1015.30 1016.65 1017.45 1017.68 1017.72 1017.78 1017.82 1018.18 1018.65 1018.94 1019.41 1019.62 1019.91 1020.34 1020.24 1020.20 1020.46 1020.57 1020.88 1021.16 1021.40 1021.82 1022.15 1022.40 1022.55 1022.81 1022.99 1023.21 1023.38 1023.50 1023.63 1023.74 1023.86 1024.01 1024.18 1024.37 1024.56 1024.72 1024.85 1024.98 1025.09 1025.22 1025.32 1025.44 1025.56 1025.59 1025.61 1025.66
1014.79 1015.89 1016.97 1017.43 1017.78 1017.76 1017.66 1017.73 1018.08 1018.56 1018.85 1019.11 1019.25 1019.89 1020.28 1020.32 1020.20 1020.41 1020.68 1020.88 1021.29 1021.63 1021.89 1022.18 1022.46 1022.69 1022.87 1023.04 1023.22 1023.39 1023.57 1023.71 1023.83 1023.93 1024.05 1024.17 1024.27 1024.45 1024.63 1024.79 1024.95 1025.09 1025.21 1025.30 1025.40 1025.53 1025.63 1025.67 1025.70
1015.26 1016.13 1017.26 1017.40 1017.61 1017.63 1017.66 1017.67 1017.70 1018.11 1018.88 1019.00 1019.13 1019.53 1019.94 1019.73 1020.24 1020.59 1020.94 1021.20 1021.44 1021.69 1021.98 1022.20 1022.45 1022.72 1022.91 1023.11 1023.31 1023.42 1023.57 1023.72 1023.83 1023.94 1024.08 1024.24 1024.41 1024.54 1024.69 1024.86 1024.99 1025.10 1025.16 1025.23 1025.32 1025.41 1025.50 1025.57 1025.66
1015.37 1016.32 1017.34 1017.23 1017.34 1017.22 1017.39 1017.64 1017.96 1017.93 1018.57 1019.01 1019.09 1019.10 1019.12 1019.33 1020.34 1020.84 1021.17 1021.48 1021.63 1021.80 1021.89 1022.22 1022.47 1022.67 1022.90 1023.12 1023.29 1023.51 1023.59 1023.73 1023.86 1023.93 1024.06 1024.24 1024.37 1024.49 1024.65 1024.80 1024.95 1025.04 1025.11 1025.13 1025.19 1025.25 1025.33 1025.45 1025.56
1015.86 1016.61 1016.69 1016.43 1016.50 1016.85 1017.18 1017.23 1017.75 1018.03 1018.74 1019.01 1019.11 1019.31 1019.28 1019.65 1020.27 1020.70 1021.00 1021.19 1021.35 1021.55 1021.81 1021.96 1022.23 1022.45 1022.75 1023.00 1023.22 1023.42 1023.53 1023.65 1023.76 1023.84 1023.93 1024.08 1024.27 1024.42 1024.62 1024.78 1024.89 1024.99 1025.09 1025.11 1025.15 1025.20 1025.24 1025.33 1025.41
1016.51 1016.85 1016.60 1016.49 1016.50 1016.70 1017.10 1017.42 1017.61 1017.87 1018.68 1018.49 1018.67 1019.03 1019.49 1019.77 1020.11 1020.45 1020.69 1020.87 1020.98 1021.26 1021.57 1021.71 1021.98 1022.21 1022.46 1022.74 1023.03 1023.29 1023.49 1023.59 1023.65 1023.77 1023.88 1023.93 1024.11 1024.32 1024.52 1024.72 1024.85 1024.92 1025.05 1025.02 1025.08 1025.10 1025.13 1025.22 1025.30
1017.05 1017.03 1016.75 1016.80 1016.78 1016.99 1017.11 1017.28 1017.68 1017.65 1017.66 1017.73 1018.19 1018.75 1019.19 1019.79 1019.98 1020.02 1020.33 1020.72 1020.97 1021.23 1021.31 1021.43 1021.60 1021.97 1022.20 1022.46 1022.70 1022.89 1023.22 1023.41 1023.45 1023.48 1023.68 1023.84 1023.92 1024.06 1024.21 1024.31 1024.46 1024.70 1024.77 1024.86 1024.94 1024.96 1024.98 1025.04 1025.13
1017.09 1017.40 1017.14 1017.14 1017.08 1017.33 1017.20 1017.33 1017.54 1017.69 1017.61 1017.80 1018.12 1018.92 1019.38 1019.66 1020.05 1020.14 1020.32 1020.63 1020.84 1020.99 1021.10 1021.27 1021.46 1021.61 1021.86 1022.17 1022.35 1022.53 1022.69 1022.87 1022.98 1023.22 1023.34 1023.49 1023.60 1023.72 1023.90 1024.03 1024.17 1024.15 1024.39 1024.53 1024.59 1024.75 1024.79 1024.79 1024.79
1017.73 1017.87 1017.66 1017.31 1017.52 1017.72 1017.59 1017.71 1017.71 1017.73 1017.93 1018.24 1018.38 1018.84 1019.27 1019.60 1019.87 1020.21 1020.44 1020.40 1020.56 1020.67 1020.76 1020.87 1021.06 1021.21 1021.55 1021.74 1021.96 1022.09 1022.33 1022.44 1022.66 1022.74 1022.86 1023.10 1023.21 1023.37 1023.60 1023.74 1023.89 1023.93 1023.92 1023.95 1024.12 1024.26 1024.40 1024.48 1024.55
1018.04 1018.19 1017.98 1017.86 1017.85 1017.94 1017.70 1018.20 1018.14 1018.05 1018.23 1018.63 1018.84 1019.06 1019.36 1019.62 1019.87 1019.71 1019.83 1020.13 1020.20 1020.35 1020.48 1020.59 1020.66 1020.83 1021.11 1021.33 1021.58 1021.82 1021.96 1022.19 1022.27 1022.33 1022.48 1022.61 1022.81 1022.97 1023.11 1023.31 1023.46 1023.35 1023.54 1023.66 1023.89 1024.10 1024.17 1024.26 1024.15
1018.78 1018.97 1019.01 1018.52 1018.25 1018.15 1017.94 1018.31 1018.09 1018.33 1018.46 1018.98 1019.32 1019.57 1019.59 1019.57 1019.70 1019.88 1019.95 1019.99 1020.11 1020.27 1020.40 1020.41 1020.41 1020.59 1020.78 1021.00 1021.28 1021.56 1021.75 1021.91 1021.95 1022.01 1022.06 1022.11 1022.29 1022.46 1022.59 1022.73 1022.73 1022.67 1023.16 1023.43 1023.63 1023.72 1023.77 1023.71 1023.66
1019.96 1020.02 1019.74 1019.05 1018.88 1018.57 1018.50 1018.79 1018.53 1018.62 1018.81 1019.21 1019.51 1019.69 1019.63 1019.66 1019.64 1019.59 1019.51 1019.66 1019.78 1019.90 1020.11 1020.25 1020.41 1020.54 1020.81 1021.13 1021.33 1021.52 1021.74 1021.88 1021.89 1021.89 1021.87 1021.83 1021.90 1022.02 1022.18 1022.26 1022.39 1022.57 1022.75 1023.01 1023.23 1023.29 1023.37 1023.28 1023.17
1020.07 1020.35 1020.19 1019.77 1019.76 1019.48 1019.52 1019.28 1018.97 1019.07 1019.32 1019.54 1019.74 1019.82 1019.92 1019.73 1018.96 1019.01 1019.02 1019.27 1019.48 1019.59 1019.84 1020.09 1020.36 1020.68 1021.00 1021.24 1021.43 1021.54 1021.67 1021.73 1021.83 1021.80 1021.74 1021.70 1021.63 1021.69 1021.83 1021.93 1022.02 1022.11 1022.42 1022.65 1022.84 1023.00 1022.93 1023.07 1022.82
1019.71 1020.20 1020.52 1020.40 1020.20 1020.33 1020.22 1020.20 1019.51 1019.61 1019.76 1019.82 1019.78 1019.71 1019.75 1019.65 1018.57 1018.69 1018.81 1019.05 1019.29 1019.61 1019.78 1019.91 1020.37 1020.66 1021.04 1021.35 1021.48 1021.62 1021.64 1021.79 1021.87 1021.99 1021.93 1021.68 1021.45 1021.41 1021.49 1021.57 1021.76 1021.93 1022.12 1022.49 1022.77 1022.89 1022.86 1022.76 1022.72
1020.31 1020.80 1021.26 1021.28 1020.88 1020.88 1021.00 1020.91 1020.33 1020.08 1019.71 1019.50 1019.47 1019.40 1019.15 1019.15 1018.59 1018.53 1018.69 1018.85 1019.01 1019.05 1019.39 1019.95 1020.18 1020.54 1020.84 1021.13 1021.28 1021.37 1021.68 1021.98 1022.03 1022.19 1022.27 1022.15 1021.85 1021.61 1021.46 1021.50 1021.76 1022.08 1022.15 1022.56 1022.72 1022.99 1022.97 1022.96 1023.04
1020.68 1020.95 1021.33 1021.58 1021.69 1021.86 1021.95 1021.46 1020.67 1019.75 1019.61 1019.31 1019.02 1018.65 1018.45 1018.40 1018.26 1018.16 1018.49 1018.62 1018.99 1019.27 1019.39 1019.69 1020.03 1020.33 1020.63 1020.97 1021.23 1021.52 1021.74 1022.00 1022.15 1022.30 1022.48 1022.58 1022.37 1022.22 1022.13 1022.16 1022.23 1022.52 1022.61 1022.96 1022.90 1023.16 1023.23 1023.24 1023.21
1021.10 1021.14 1021.32 1021.85 1022.39 1023.09 1023.00 1021.93 1021.01 1020.03 1019.75 1019.33 1018.50 1018.24 1018.04 1018.05 1017.92 1018.00 1018.17 1018.40 1018.56 1018.67 1019.33 1019.67 1019.98 1020.31 1020.57 1020.80 1021.07 1021.06 1021.34 1021.87 1022.12 1022.41 1022.76 1022.89 1022.79 1022.64 1022.60 1022.60 1022.71 1022.95 1023.08 1023.28 1023.37 1023.43 1023.49 1023.38 1023.32
1020.88 1021.15 1021.76 1022.48 1023.25 1023.76 1024.07 1023.76 1020.74 1020.33 1019.70 1018.72 1017.82 1017.73 1017.44 1017.56 1017.88 1017.80 1017.87 1017.75 1017.75 1018.42 1018.95 1019.46 1020.01 1020.32 1020.55 1020.75 1020.88 1021.08 1021.45 1021.84 1022.30 1022.70 1023.02 1023.18 1023.22 1023.12 1023.09 1023.13 1023.25 1023.39 1023.53 1023.77 1023.77 1023.86 1023.85 1023.83 1023.76
1021.03 1021.82 1022.77 1023.52 1024.33 1024.85 1023.97 1023.92 1020.61 1020.12 1019.12 1018.12 1017.55 1017.38 1017.54 1017.47 1017.47 1017.59 1017.52 1017.82 1017.90 1018.15 1018.78 1019.54 1020.07 1020.47 1020.60 1020.69 1020.81 1020.98 1021.27 1021.82 1022.34 1022.74 1023.02 1023.27 1023.37 1023.46 1023.55 1023.62 1023.73 1023.88 1023.98 1024.08 1024.20 1024.24 1024.20 1024.19 1024.18
1021.00 1021.84 1023.94 1025.00 1025.65 1025.16 1024.53 1024.15 1019.53 1018.91 1018.19 1017.73 1017.28 1017.57 1017.71 1017.52 1017.42 1017.39 1017.66 1017.99 1018.32 1018.65 1018.94 1019.53 1020.01 1020.42 1020.52 1020.58 1020.84 1021.12 1021.39 1021.73 1022.01 1022.41 1022.77 1023.09 1023.37 1023.64 1023.81 1023.93 1024.06 1024.20 1024.36 1024.42 1024.41 1024.46 1024.56 1024.71 1024.78
1021.18 1021.44 1022.91 1024.25 1025.62 1025.37 1024.93 1022.91 1019.08 1018.16 1017.70 1017.40 1017.38 1017.47 1017.49 1017.48 1017.25 1017.27 1017.62 1017.98 1018.30 1018.87 1019.25 1019.53 1019.81 1020.15 1020.53 1020.74 1021.02 1021.25 1021.66 1021.99 1022.30 1022.59 1022.95 1023.29 1023.51 1023.74 1023.99 1024.12 1024.27 1024.41 1024.52 1024.62 1024.71 1024.86 1025.11 1025.35 1025.47
1020.82 1021.29 1022.17 1023.90 1025.93 1025.54 1023.79 1021.66 1019.18 1017.91 1017.39 1017.01 1017.05 1017.29 1017.28 1017.21 1017.23 1017.38 1017.51 1017.85 1018.26 1018.69 1019.07 1019.50 1020.01 1020.51 1020.90 1021.16 1021.40 1021.45 1021.64 1022.05 1022.50 1022.87 1023.13 1023.44 1023.71 1023.88 1024.13 1024.25 1024.41 1024.61 1024.74 1024.92 1025.11 1025.35 1025.61 1025.78 1026.01
1019.50 1020.36 1022.11 1023.63 1025.17 1025.02 1022.96 1021.55 1019.25 1017.93 1017.35 1017.07 1017.12 1017.34 1017.21 1017.06 1017.19 1017.33 1017.61 1017.80 1018.14 1018.60 1019.00 1019.51 1019.94 1020.36 1020.77 1021.18 1021.54 1021.90 1022.13 1022.39 1022.76 1023.18 1023.42 1023.51 1023.67 1023.81 1024.04 1024.36 1024.67 1024.94 1025.12 1025.25 1025.37 1025.64 1025.92 1026.06 1026.34
1019.90 1020.20 1021.01 1022.06 1023.18 1023.26 1022.66 1020.14 1018.04 1017.47 1017.28 1017.14 1017.10 1017.07 1016.96 1017.01 1017.13 1017.33 1017.59 1017.85 1018.19 1018.47 1018.83 1019.11 1019.63 1020.06 1020.57 1021.05 1021.38 1021.68 1021.96 1022.34 1022.73 1023.05 1023.34 1023.53 1023.72 1023.84 1024.02 1024.36 1024.69 1024.99 1025.24 1025.49 1025.61 1025.86 1026.17 1026.36 1026.65
1019.32 1019.48 1020.21 1021.16 1022.42 1022.46 1021.81 1018.69 1017.06 1016.95 1016.86 1016.79 1016.95 1016.68 1016.55 1016.57 1016.93 1017.14 1017.55 1017.71 1018.01 1018.36 1018.66 1018.92 1019.39 1019.86 1020.25 1020.62 1021.10 1021.45 1021.84 1022.28 1022.72 1023.05 1023.28 1023.53 1023.72 1023.96 1024.16 1024.44 1024.72 1025.07 1025.37 1025.61 1025.76 1025.94 1026.23 1026.45 1026.77
Wind_Speed
4 6 2 4 4 5 1 3 2 4 2 1 2 3 4 3 2 2 1 6 14 12 10 10 8 10 10 9 11 10 12 11 11 11 10 10 10 10 10 12 11 11 11 12 13 13 13 13 13
2 3 4 3 5 3 2 2 5 4 5 7 5 2 4 2 2 6 8 6 14 13 10 10 10 9 10 9 9 7 12 12 10 9 9 8 8 9 9 9 7 10 11 11 12 12 12 11 11
4 2 4 5 3 4 4 4 5 4 7 2 4 3 2 4 3 9 3 12 12 11 10 9 10 9 10 9 7 8 11 10 9 9 8 8 8 8 8 9 8 7 9 10 11 11 11 8 10
2 4 5 4 3 2 2 5 5 8 1 2 4 6 1 1 7 4 13 14 12 10 10 10 10 11 10 8 8 7 10 10 9 8 7 7 7 6 6 7 6 4 9 11 10 10 10 11 9
4 3 5 4 2 1 1 5 7 5 6 3 2 4 2 1 3 12 14 12 13 10 9 9 10 10 10 9 9 8 8 9 9 9 7 6 6 5 5 5 6 6 8 8 8 8 8 9 10
4 3 4 3 3 0 2 6 7 2 3 4 5 6 4 1 9 10 12 12 11 12 10 8 8 9 8 8 8 7 6 4 5 7 7 7 6 5 4 4 4 4 4 4 4 5 6 5 6
6 4 5 6 6 3 5 6 6 5 5 4 7 5 1 3 7 10 10 10 9 8 9 8 7 7 7 7 8 7 6 5 4 4 4 5 6 6 4 3 2 1 1 1 2 2 3 3 4
5 5 5 3 7 5 5 5 6 5 3 2 3 5 5 5 10 9 8 8 8 8 8 8 8 7 6 6 7 7 6 6 5 4 4 4 4 4 4 3 2 2 2 2 1 1 1 2 4
2 5 3 7 7 5 6 5 1 3 6 1 2 4 1 11 11 8 6 5 6 6 7 7 7 7 7 6 5 5 5 5 5 5 4 3 2 4 4 3 4 4 4 4 4 3 3 3 2
5 3 8 5 5 5 6 5 8 5 3 1 1 1 5 11 12 11 10 10 9 10 8 8 8 8 7 5 6 5 5 4 4 4 4 3 3 3 4 4 4 4 5 6 7 6 5 4 3
3 2 2 0 1 4 7 4 2 10 3 6 7 8 10 8 10 11 10 9 11 9 7 9 8 8 8 6 4 3 3 3 4 5 4 4 3 3 3 2 2 3 3 3 4 4 3 4 3
3 3 2 4 2 4 8 9 5 4 5 2 6 10 13 12 12 12 11 9 6 6 9 8 9 7 7 4 5 4 4 4 4 5 6 4 3 4 3 3 4 3 2 4 4 3 4 5 5
3 1 4 3 6 2 5 3 5 7 1 3 10 9 11 11 9 5 6 5 6 7 7 8 7 8 7 7 5 5 5 5 6 5 6 5 5 5 4 4 3 4 3 4 3 3 3 4 5
1 2 1 4 3 3 3 1 4 3 3 6 10 12 9 10 11 4 5 8 8 7 8 7 9 9 7 8 8 6 5 6 6 5 6 7 6 5 5 4 4 4 5 4 3 4 3 4 3
0 2 2 5 2 2 1 1 5 1 3 6 7 7 7 7 6 12 8 8 7 7 5 8 8 7 9 9 7 6 6 5 6 6 8 9 8 7 6 5 4 5 3 5 4 4 3 4 4
5 5 2 2 0 2 3 6 3 2 5 6 5 4 6 7 7 5 5 6 6 5 7 5 5 6 7 6 5 4 4 5 5 6 6 9 8 9 7 5 6 5 3 3 3 4 4 5 5
6 4 2 4 2 1 2 7 1 2 4 5 6 7 7 5 6 8 9 8 7 7 6 6 5 5 5 4 3 3 3 3 3 4 5 7 8 8 7 5 4 3 4 3 3 4 4 4 5
6 5 3 5 3 3 3 6 3 1 2 4 5 6 7 7 14 9 9 7 6 6 6 5 5 5 4 2 1 1 1 2 1 2 3 5 5 7 6 4 4 4 4 2 2 2 2 4 6
5 4 5 3 3 1 3 5 11 3 3 6 8 7 7 11 10 7 7 6 6 5 7 8 7 5 3 1 1 1 1 0 1 2 4 3 3 5 7 5 5 4 4 1 0 2 4 3 2
5 5 3 1 3 2 4 8 10 4 6 7 9 9 11 7 10 8 8 7 8 8 7 7 7 6 4 2 2 2 2 2 3 3 4 5 4 4 3 5 4 2 2 3 4 4 3 2 4
1 6 5 3 1 3 3 7 6 4 4 4 8 12 10 15 14 10 8 9 6 8 8 8 6 6 4 4 3 2 3 2 2 2 2 4 5 5 5 5 5 4 3 2 4 2 1 1 1
6 6 6 6 4 4 2 8 6 6 6 6 12 10 14 14 10 8 7 7 10 11 6 6 6 5 4 6 5 5 4 4 1 2 3 3 5 6 6 6 6 5 3 3 2 1 0 2 2
3 5 7 3 5 2 3 3 7 3 6 12 11 11 13 9 7 9 10 12 10 7 9 6 6 5 4 4 5 4 3 2 3 4 6 4 4 5 6 5 5 4 3 3 3 2 2 1 1
9 7 8 5 3 2 7 7 5 6 8 7 5 5 6 7 6 7 8 7 5 6 8 6 6 4 3 4 4 6 7 8 6 5 4 3 2 3 4 5 4 4 4 3 3 3 3 2 2
3 6 3 3 1 7 1 4 11 4 10 12 9 4 7 7 7 7 7 5 4 6 6 5 6 5 4 4 3 4 6 8 8 7 5 5 3 2 3 3 3 3 4 4 4 4 5 5 3
5 5 6 8 6 3 2 9 8 9 10 9 7 7 7 8 7 7 6 5 5 6 6 7 7 6 5 5 4 4 4 3 3 4 3 3 2 3 3 4 4 5 5 5 5 4 4 4 4
6 6 5 7 3 3 5 8 10 7 13 7 8 5 7 7 6 6 3 4 5 7 8 7 5 4 4 4 4 5 5 6 6 5 4 4 4 3 4 4 5 5 5 5 4 3 4 5 5
6 9 3 3 2 4 4 5 7 4 5 7 6 6 7 6 6 4 3 5 4 5 5 6 6 7 6 6 5 4 4 4 5 4 5 5 4 4 5 5 5 5 4 4 4 4 4 5 4
4 3 3 5 5 6 2 7 7 5 4 6 7 7 6 7 7 5 4 4 5 5 7 7 7 7 6 6 5 6 5 5 5 4 4 4 3 4 5 5 5 4 4 4 5 5 5 6 7
2 5 5 5 4 3 2 9 6 7 5 5 5 3 3 3 4 3 5 5 6 7 7 8 6 6 7 7 6 6 6 6 5 5 5 5 5 4 5 5 5 5 4 4 5 5 5 7 7
Wind_Direction
353 134 107 49 63 65 112 170 123 124 145 151 92 153 157 60 134 157 132 166 140 142 148 141 132 124 129 143 142 138 124 116 107 105 99 98 90 82 90 79 72 88 82 78 77 77 73 72 72
108 144 57 86 87 90 243 221 153 162 135 129 87 73 62 87 103 124 135 172 146 144 148 145 138 133 131 126 140 147 126 122 118 114 108 102 100 89 99 84 72 78 90 80 74 69 66 68 72
137 7 87 93 105 166 171 198 146 109 142 128 102 47 108 131 109 156 157 153 143 143 146 144 140 141 136 135 133 114 123 118 122 121 112 108 104 96 91 87 69 63 102 77 67 59 51 72 79
123 21 44 85 140 225 162 162 134 131 213 102 127 76 44 269 159 185 144 148 143 145 147 151 149 147 143 136 136 132 130 130 133 133 128 116 112 106 103 86 71 52 67 77 60 53 49 55 90
40 60 69 80 121 264 296 135 141 140 133 122 149 148 73 50 96 137 144 152 150 151 153 161 157 154 151 147 143 142 156 153 150 153 146 142 135 116 109 95 77 82 61 67 60 53 49 40 57
58 93 80 161 163 173 87 152 136 102 129 140 101 117 159 137 141 156 151 159 161 160 161 164 164 158 159 158 150 145 142 129 138 161 160 154 151 147 135 133 114 103 95 89 80 58 52 47 43
104 83 156 136 151 144 173 157 152 141 137 199 153 116 179 183 173 155 156 154 161 165 165 169 171 173 169 166 163 159 157 152 136 132 152 161 163 172 172 158 149 175 137 125 102 46 29 31 30
101 91 115 168 174 185 181 143 144 137 163 104 160 170 175 185 158 140 147 157 164 168 175 177 177 178 182 183 185 179 176 174 170 159 154 174 190 196 201 191 221 243 264 262 246 226 312 7 16
107 72 155 176 168 174 171 131 214 92 118 180 177 162 241 127 131 128 133 145 166 178 182 183 187 188 189 194 198 201 203 199 198 191 193 190 214 216 213 211 227 254 274 288 288 273 268 292 338
69 105 195 180 168 165 171 147 153 124 115 193 173 69 113 132 154 161 167 174 184 189 192 193 192 194 191 199 200 207 205 209 214 203 202 205 213 212 218 227 243 264 280 285 285 289 288 277 278
357 119 167 93 190 141 147 117 129 122 213 212 197 162 155 157 167 176 185 185 192 195 190 194 197 198 194 199 200 205 211 212 215 226 224 203 200 202 210 227 240 254 268 274 284 281 271 272 273
91 19 33 6 335 148 166 131 132 175 194 185 203 159 158 172 185 187 190 190 176 189 205 200 199 198 201 198 205 206 208 215 222 221 215 206 207 210 213 208 213 228 241 264 270 267 264 266 268
72 358 48 30 55 65 120 111 168 204 216 122 131 141 176 181 194 204 188 188 186 205 209 212 199 207 204 203 210 215 218 218 226 224 219 211 215 220 210 225 233 223 193 211 227 232 246 254 259
356 80 85 45 49 63 104 94 144 214 117 130 150 169 180 193 194 175 193 206 199 212 217 208 209 211 199 210 214 221 224 227 224 226 228 221 223 224 219 220 216 224 217 239 211 214 226 243 240
119 100 42 29 5 84 155 97 231 35 134 165 183 178 187 204 183 212 208 213 200 220 224 217 215 204 205 211 217 225 232 231 235 231 226 227 222 226 225 207 216 234 206 225 233 241 226 250 246
60 50 75 305 205 339 107 245 176 153 142 193 204 205 209 218 225 248 229 226 217 225 226 236 219 212 210 205 211 231 244 249 253 246 237 229 223 224 232 225 226 214 187 193 210 228 221 229 230
23 157 188 316 327 136 119 236 150 142 159 203 212 221 224 246 247 236 233 226 221 226 226 215 196 189 180 180 191 211 241 253 267 269 257 246 230 224 227 233 251 190 204 202 201 236 226 252 252
172 171 219 209 348 45 81 256 228 75 197 246 258 248 243 235 240 230 237 230 227 214 204 191 179 171 163 154 184 245 264 267 282 286 277 270 244 229 220 224 211 176 190 200 175 240 268 262 280
121 121 167 240 355 167 224 261 269 328 290 263 251 247 247 246 253 233 243 233 222 210 199 191 171 181 163 165 178 226 242 148 90 36 5 328 252 225 212 207 180 167 162 125 331 250 252 256 294
139 139 191 26 14 98 8 276 270 239 240 222 238 243 241 246 257 241 230 220 211 214 204 179 192 178 179 170 175 146 144 105 101 89 51 30 40 51 108 144 125 100 113 114 93 51 330 32 5
100 158 168 161 65 59 329 277 254 274 250 250 256 244 247 236 247 252 234 225 220 222 201 195 185 182 178 178 140 111 96 102 135 110 68 30 50 59 73 78 84 77 84 94 88 87 151 267 276
191 181 148 138 103 236 8 279 279 265 273 264 254 246 248 245 247 249 240 228 216 220 182 191 185 178 183 177 188 178 175 172 174 114 109 79 59 68 71 80 84 88 88 92 84 49 269 217 244
219 148 148 128 107 91 339 307 272 0 299 260 251 245 249 254 241 253 243 233 229 175 187 174 175 184 184 190 197 187 165 133 132 128 123 105 75 65 67 74 84 88 88 87 77 61 40 10 226
142 92 51 53 75 317 191 171 226 189 210 274 249 242 269 280 262 260 266 265 217 172 162 164 166 167 170 180 189 192 172 155 150 157 149 133 96 70 64 73 81 82 86 85 83 86 67 54 62
101 102 38 15 10 230 347 172 259 259 234 230 259 297 287 282 285 272 279 256 231 189 156 151 160 168 168 159 155 176 168 166 167 165 161 160 151 132 90 81 79 80 78 75 75 68 56 39 49
182 154 160 193 196 220 86 234 254 236 286 274 278 277 284 276 267 273 287 246 205 177 169 165 173 167 159 144 140 128 138 144 146 158 157 160 156 139 127 103 86 77 70 65 63 66 65 61 63
194 206 155 106 44 48 214 282 285 273 276 277 279 313 289 300 307 295 268 208 193 178 180 180 164 148 160 139 142 145 145 148 157 154 151 148 139 139 120 101 93 76 72 71 77 79 81 80 76
159 153 99 10 136 259 266 271 237 272 241 302 330 291 296 323 318 299 238 204 197 189 169 161 169 175 170 162 165 156 139 134 139 142 152 156 140 124 124 110 96 87 83 90 99 100 103 107 98
144 173 141 129 155 181 247 257 214 226 254 264 293 284 287 301 302 288 250 219 201 179 177 182 181 176 172 177 172 161 160 152 150 157 153 146 137 141 135 130 121 115 111 116 117 116 121 111 104
313 191 162 142 225 223 171 258 197 208 216 181 269 229 255 288 276 292 264 212 192 197 192 195 186 185 189 182 175 178 159 155 155 160 162 160 153 150 147 142 133 131 132 136 140 131 128 127 117